Zhangiztobe

Kazakhstan     49˚12′53″N   81˚12′52″E
temp.,
°C
wind,
m/s
gust,
m/s
humid.,
%
clouds,
%
prec.,
mm/h
press.,
hPa
HPBL,
m
28 november, sat
sat2800:00−9˚sse356953 0.0 103563
03:00−8˚se376799 0.0 1033127
06:00−7˚se386996 0.0 1033136
09:00−6˚se5157090 0.0 1031384
12:00−3˚se5157095 0.0 1030622
15:00−3˚se51271100 0.0 1030429
18:00−2˚s101869100 0.2 1032542
21:00−3˚sse71393100 1.2 1034464
29 november, sun
sun2900:00−2˚ssw51379100 1.8 1036528
03:00−5˚s6138249 0.0 1038297
06:00−6˚s6138224 0.0 1039280
09:00−5˚sse5138467 0.0 1039585
12:00−3˚s6127783 0.0 10381241
15:00−3˚s5987100 0.1 1038758
18:00−5˚s51093100 0.3 1040437
21:00−8˚w1295100 0.2 104137
30 november, mon
mon3000:00−11˚n2298100 0.6 104258
03:00−12˚nnw119699 0.0 104320
06:00−13˚nnw3397100 0.1 104487
09:00−14˚wnw2296100 0.2 104636
12:00−12˚nw2393100 0.3 1046221
15:00−12˚nw2396100 0.1 1047162
18:00−15˚nw2397100 0.1 104953
21:00−16˚nw2397100 0.1 105043
1 december, tue
tue100:00−16˚wnw2297100 0.2 105033
03:00−17˚wnw2297100 0.1 105122
06:00−18˚wnw1298100 0.1 105120
09:00−19˚wnw1198100 0.1 105120
12:00−16˚nw1292100 0.1 1051217
15:00−16˚nnw1196100 0.0 105031
18:00−20˚w11100100 0.1 105020
21:00−20˚wsw11100100 0.0 105020
2 december, wed
wed200:00−21˚sw1110098 0.0 105020
03:00−21˚sw1110082 0.0 105020
06:00−22˚wsw1110074 0.0 104920
09:00−21˚wsw119954 0.0 104920
12:00−17˚n009227 0.0 104888
15:00−17˚nne11930 0.0 104723
18:00−20˚ne11940 0.0 104620
21:00−20˚ene11910 0.0 104520